Hoquiam, WA
on Friday, January 11, 2013

Friday
Previous Day Next Day
Daily Summary
 ActualAverageRecord
Temperature
Mean Temperature °F 42°F  
Max Temperature 39°F 47°F 58°F (2010)
Min Temperature 28°F 38°F 18°F (1963)
Degree Days
Heating Degree Days 32 23  
Month to date heating degree days 253  
Cooling Degree Days 0 0  
Month to date cooling degree days 0  
Year to date cooling degree days 0  
Moisture
Dew Point 29°F   
Average Humidity 93    
Maximum Humidity 100    
Minimum Humidity 68    
Precipitation
Precipitation 0.01 in 0.36 in 2.01 in (2010)
Month to date precipitation 3.87  
Year to date precipitation 3.87  
Wind
Wind Speed 5 mph   
Max Wind Speed 7 mph   
Max Gust Speed mph   
Visibility 5 miles   
Events Fog   

Key: T is trace of precipitation, MM is missing value
Source: NWS Daily Summary
Time(PST)TemperatureDew PointHumidity Pressure Visibility Wind DirectionWind SpeedGust SpeedPrecipitationEvents Conditions
12:49 AM 30.2°F 28.4°F 93% 30.13 in 8.0 miles ENE 4.6 mph - N/A   Scattered Clouds
12:53 AM 30.9°F 30.0°F 96% 30.14 in 4.0 miles ENE 3.5 mph - N/A   Mostly Cloudy
12:56 AM 32.0°F 30.2°F 93% 30.13 in 1.8 miles ENE 4.6 mph - N/A   Mostly Cloudy
1:06 AM 32.0°F 30.2°F 93% 30.13 in 0.8 miles NE 3.5 mph - N/A   Mist
1:17 AM 32.0°F 30.2°F 93% 30.13 in 1.0 miles NE 5.8 mph - N/A   Mist
1:24 AM 32.0°F 30.2°F 93% 30.13 in 0.5 miles NE 5.8 mph - N/A Fog Fog
1:53 AM 32.0°F 30.9°F 96% 30.15 in 0.5 miles ENE 4.6 mph - N/A Fog Fog
2:02 AM 30.2°F 30.2°F 100% 30.14 in 2.5 miles ENE 4.6 mph - N/A   Mostly Cloudy
2:09 AM 30.2°F 30.2°F 100% 30.15 in 6.0 miles ENE 4.6 mph - N/A   Mostly Cloudy
2:21 AM 30.2°F 30.2°F 100% 30.15 in 1.8 miles NE 5.8 mph - N/A   Overcast
2:30 AM 30.2°F 30.2°F 100% 30.15 in 0.5 miles ENE 4.6 mph - N/A Fog Light Freezing Fog
2:37 AM 30.2°F 30.2°F 100% 30.15 in 0.2 miles ENE 4.6 mph - N/A Fog Light Freezing Fog
2:53 AM 30.0°F 30.0°F 100% 30.17 in 0.2 miles ENE 4.6 mph - N/A Fog Light Freezing Fog
3:04 AM 30.2°F 30.2°F 100% 30.16 in 0.5 miles ENE 4.6 mph - N/A Fog Light Freezing Fog
3:30 AM 30.2°F 30.2°F 100% 30.16 in 0.2 miles ENE 4.6 mph - N/A Fog Light Freezing Fog
3:53 AM 30.0°F 30.0°F 100% 30.17 in 0.5 miles ENE 3.5 mph - N/A Fog Light Freezing Fog
4:07 AM 30.2°F 28.4°F 93% 30.15 in 0.2 miles ENE 5.8 mph - N/A Fog Light Freezing Fog
4:18 AM 28.4°F 28.4°F 100% 30.15 in 0.5 miles NE 5.8 mph - N/A Fog Light Freezing Fog
4:41 AM 28.4°F 28.4°F 100% 30.16 in 1.5 miles East 6.9 mph - N/A   Mostly Cloudy
4:53 AM 28.9°F 28.0°F 96% 30.17 in 0.8 miles NE 6.9 mph - N/A   Mist
5:07 AM 28.4°F 28.4°F 100% 30.16 in 2.0 miles East 5.8 mph - N/A   Mostly Cloudy
5:14 AM 28.4°F 28.4°F 100% 30.16 in 6.0 miles ENE 5.8 mph - N/A   Mostly Cloudy
5:23 AM 28.4°F 28.4°F 100% 30.17 in 10.0 miles East 4.6 mph - N/A   Partly Cloudy
5:53 AM 28.0°F 28.0°F 100% 30.19 in 4.0 miles ENE 5.8 mph - N/A   Scattered Clouds
6:05 AM 28.4°F 28.4°F 100% 30.18 in 3.0 miles East 5.8 mph - N/A   Mostly Cloudy
6:08 AM 28.4°F 28.4°F 100% 30.18 in 2.5 miles ENE 6.9 mph - N/A   Scattered Clouds
6:20 AM 28.4°F 28.4°F 100% 30.18 in 7.0 miles NE 4.6 mph - N/A   Scattered Clouds
6:53 AM 28.0°F 28.0°F 100% 30.22 in 2.5 miles ENE 3.5 mph - N/A   Partly Cloudy
7:02 AM 28.4°F 28.4°F 100% 30.21 in 7.0 miles Calm Calm - N/A   Partly Cloudy
7:53 AM 28.0°F 27.0°F 96% 30.25 in 8.0 miles East 5.8 mph - N/A   Clear
8:53 AM 28.9°F 28.9°F 100% 30.27 in 4.0 miles ENE 4.6 mph - N/A   Clear
9:38 AM 30.2°F 28.4°F 93% 30.28 in 1.8 miles ENE 5.8 mph - N/A   Partly Cloudy
9:47 AM 30.2°F 30.2°F 100% 30.28 in 3.0 miles ENE 5.8 mph - N/A   Partly Cloudy
9:53 AM 30.0°F 30.0°F 100% 30.30 in 2.5 miles ENE 6.9 mph - N/A   Partly Cloudy
10:53 AM 34.0°F 33.1°F 96% 30.31 in 8.0 miles NE 5.8 mph - 0.01 in   Partly Cloudy
11:53 AM 37.4°F 32.0°F 81% 30.29 in 10.0 miles East 6.9 mph - N/A   Clear
12:53 PM 37.9°F 28.0°F 68% 30.30 in 10.0 miles ENE 6.9 mph - N/A   Clear
1:53 PM 39.0°F 30.0°F 70% 30.30 in 10.0 miles East 6.9 mph - N/A   Clear
2:53 PM 39.0°F 30.0°F 70% 30.31 in 10.0 miles East 5.8 mph - N/A   Clear
3:53 PM 37.9°F 28.0°F 68% 30.32 in 10.0 miles East 5.8 mph - N/A   Clear
4:53 PM 36.0°F 28.9°F 76% 30.32 in 10.0 miles NE 4.6 mph - N/A   Clear
5:53 PM 34.0°F 28.9°F 82% 30.33 in 10.0 miles NE 4.6 mph - N/A   Clear
6:53 PM 32.0°F 30.0°F 92% 30.33 in 10.0 miles Calm Calm - N/A   Clear
7:53 PM 33.1°F 28.9°F 85% 30.32 in 10.0 miles NE 4.6 mph - N/A   Clear
8:53 PM 32.0°F 28.0°F 85% 30.32 in 10.0 miles NE 5.8 mph - N/A   Clear
9:53 PM 32.0°F 28.0°F 85% 30.32 in 10.0 miles NE 5.8 mph - N/A   Clear
10:53 PM 32.0°F 28.0°F 85% 30.32 in 10.0 miles NE 5.8 mph - N/A   Mostly Cloudy
11:53 PM 32.0°F 28.4°F 87% 30.31 in 10.0 miles NE 6.9 mph - N/A   Mostly Cloudy
Moon Phase
Jan. 11 Jan. 18 Jan. 26 Feb. 03 Feb. 10
Sunrise:07:58 AM (PST) Moon Rise:07:33 AM (PST)1/11
Sunset:04:49 PM (PST) Moon Set:05:18 PM (PST)1/11

Copyright © 2014 The Weather Underground, Inc.